Atlantic Horizon — C6XI2 — position and weather

sailwx.info

Track history (hours):
 
Tides and Currents Weather Stations Pressure Air Temp Water Temp Dewpoint Dewpoint Depression Visibility Wind Speed Wind Dir Waves Ship Positions

Atlantic Horizon

Last reported at 2015-Jul-04 14:22 UTC. Time now 2015-Jul-28 03:32 UTC.
Position N 22°44' E 119°53'.
Warning: this ship's position is 23 days out of date.

Length 225 m; draft 13.2 m.

Type: Cargo ship. MMSI: 311010300.

Date/timePositionNaut miles runAvg speedWind from/ knotsBaromVisibWave heightAir tempDewpointWater temp
2015-Jul-04 14:22N 22°44' E 119°53'1012.3
2015-Jul-04 13:33N 22°34' E 119°52'1211.5
2015-Jul-04 12:32N 22°23' E 119°48'1611.1
2015-Jul-04 11:07N 22°09' E 119°40'  
2015-Jun-28 21:04N 01°15' E 104°05'3 6.1
2015-Jun-28 20:33N 01°17' E 104°03'2 2.0
2015-Jun-28 19:29N 01°17' E 104°00'0 0.0
2015-Jun-28 18:32N 01°17' E 104°00'0 0.0
2015-Jun-28 17:26N 01°17' E 104°00'0 0.0
2015-Jun-28 16:26N 01°17' E 104°00'0 0.1
2015-Jun-28 15:32N 01°17' E 104°00'0 0.1
2015-Jun-28 12:20N 01°17' E 104°00'0 0.0
2015-Jun-28 10:08N 01°17' E 104°00'0 0.0
2015-Jun-28 09:32N 01°17' E 104°00'0 0.0
2015-Jun-28 08:29N 01°17' E 104°00'0 0.0
2015-Jun-28 07:32N 01°17' E 104°00'0 0.0
2015-Jun-28 04:33N 01°17' E 104°00'1 0.7
2015-Jun-28 03:33N 01°17' E 103°60'6 5.6
2015-Jun-28 02:34N 01°13' E 103°55'7 6.9
2015-Jun-28 01:33N 01°10' E 103°49'76 9.2
2015-Jun-27 17:21N 01°42' E 102°40'910.8
2015-Jun-27 16:33N 01°45' E 102°32'1110.6
2015-Jun-27 15:30N 01°50' E 102°22'  
Track history (hours):
 
Tides and Currents Weather Stations Pressure Air Temp Water Temp Dewpoint Dewpoint Depression Visibility Wind Speed Wind Dir Waves Ship Positions

Atlantic Horizon

Last reported at 2015-Jul-04 14:22 UTC. Time now 2015-Jul-28 03:32 UTC.
Position N 22°44' E 119°53'.
Warning: this ship's position is 23 days out of date.

Length 225 m; draft 13.2 m.

Type: Cargo ship. MMSI: 311010300.

Date/timePositionNaut miles runAvg speedWind from/ knotsBaromVisibWave heightAir tempDewpointWater temp
2015-Jul-04 14:22N 22°44' E 119°53'1012.3
2015-Jul-04 13:33N 22°34' E 119°52'1211.5
2015-Jul-04 12:32N 22°23' E 119°48'1611.1
2015-Jul-04 11:07N 22°09' E 119°40'  
2015-Jun-28 21:04N 01°15' E 104°05'3 6.1
2015-Jun-28 20:33N 01°17' E 104°03'2 2.0
2015-Jun-28 19:29N 01°17' E 104°00'0 0.0
2015-Jun-28 18:32N 01°17' E 104°00'0 0.0
2015-Jun-28 17:26N 01°17' E 104°00'0 0.0
2015-Jun-28 16:26N 01°17' E 104°00'0 0.1
2015-Jun-28 15:32N 01°17' E 104°00'0 0.1
2015-Jun-28 12:20N 01°17' E 104°00'0 0.0
2015-Jun-28 10:08N 01°17' E 104°00'0 0.0
2015-Jun-28 09:32N 01°17' E 104°00'0 0.0
2015-Jun-28 08:29N 01°17' E 104°00'0 0.0
2015-Jun-28 07:32N 01°17' E 104°00'0 0.0
2015-Jun-28 04:33N 01°17' E 104°00'1 0.7
2015-Jun-28 03:33N 01°17' E 103°60'6 5.6
2015-Jun-28 02:34N 01°13' E 103°55'7 6.9
2015-Jun-28 01:33N 01°10' E 103°49'76 9.2
2015-Jun-27 17:21N 01°42' E 102°40'910.8
2015-Jun-27 16:33N 01°45' E 102°32'1110.6
2015-Jun-27 15:30N 01°50' E 102°22'  

Dump ship's entire track history